Manchester, NH

7:26 PM EDT on August 31, 2016 (GMT -0400)
Manchester

Weather History for KMHT - February, 2014

Change the Weather History Date:

Wednesday, February 5, 2014

  Actual Average Record
Temperature  
Mean Temperature 24 °F -  
Max Temperature 28 °F 35 °F 56 °F (2005)
Min Temperature 21 °F 17 °F 3 °F (2015)
Degree Days  
Heating Degree Days 40    
Cooling Degree Days 0    
Moisture  
Dew Point 19 °F    
Average Humidity 81    
Maximum Humidity 92    
Minimum Humidity 54    
Precipitation  
Precipitation 0.48 in - 0.66 in (2006)
Month to date precipitation  
Year to date precipitation  
Snow  
Snow 0.00 in - - ()
Month to date snowfall  
Since 1 July snowfall  
Snow Depth 9.00 in    
Sea Level Pressure  
Sea Level Pressure 29.95 in    
Wind  
Wind Speed 8 mph (NNE)    
Max Wind Speed 16 mph    
Max Gust Speed 23 mph    
Visibility 3 miles    
Events Fog , Snow    
T = Trace of Precipitation, MM = Missing Value Source: NWS Daily Summary

Daily Weather History Graph

Daily Weather History Graph

Search for Another Location

Airport or City:

Trip Planner

Search our weather history database for the weather conditions in past years. The results will help you decide how hot, cold, wet, or windy it might be!

Date:

Astronomy

Feb. 05, 2014 Rise Set
Actual Time 6:56 AM EST 5:03 PM EST
Civil Twilight 6:26 AM EST 5:33 PM EST
Nautical Twilight 5:52 AM EST 6:07 PM EST
Astronomical Twilight 5:19 AM EST 6:40 PM EST
Moon 9:58 AM EST (2/5) No Moon Set
Length of Visible Light 11h 07m
Length of Day
10h 07m
Waxing Crescent, 39% of the Moon is Illuminated
Feb 5
Waxing Crescent
Feb 6
First Quarter
Feb 14
Full
Feb 22
Last Quarter
Mar 1
New

Hourly Weather History & Observations

Time (EST) Temp. Windchill Dew Point Humidity Pressure Visibility Wind Dir Wind Speed Gust Speed Precip Events Conditions
12:53 AM 28.9 °F 22.8 °F 14.0 °F 54% 30.30 in 10.0 mi NNE 5.8 mph - N/A   Overcast
1:53 AM 28.9 °F - 15.1 °F 56% 30.32 in 10.0 mi Calm Calm - N/A   Overcast
2:53 AM 28.0 °F 22.8 °F 15.1 °F 58% 30.29 in 10.0 mi NNE 4.6 mph - N/A   Overcast
3:53 AM 28.9 °F 23.9 °F 15.1 °F 56% 30.28 in 10.0 mi North 4.6 mph - N/A   Overcast
4:53 AM 28.9 °F 21.9 °F 14.0 °F 54% 30.24 in 10.0 mi NE 6.9 mph - N/A   Overcast
5:36 AM 28.9 °F 21.1 °F 14.0 °F 54% 30.17 in 2.0 mi ENE 8.1 mph - 0.00 in Snow Light Snow
5:44 AM 27.0 °F 18.7 °F 18.0 °F 69% 30.17 in 0.8 mi NNE 8.1 mph - 0.00 in Snow Light Snow
5:53 AM 26.1 °F 17.6 °F 19.9 °F 78% 30.24 in 0.8 mi NNE 8.1 mph - 0.01 in Snow Light Snow
6:02 AM 25.0 °F 17.1 °F 21.0 °F 85% 30.17 in 0.5 mi North 6.9 mph - 0.01 in Fog , Snow Light Snow
6:11 AM 25.0 °F 17.1 °F 21.9 °F 88% 30.16 in 0.2 mi NNE 6.9 mph - 0.03 in Fog , Snow Heavy Snow
6:53 AM 25.0 °F 18.1 °F 23.0 °F 92% 30.21 in 0.8 mi North 5.8 mph - 0.09 in Snow Light Snow
7:25 AM 26.1 °F 18.4 °F 23.0 °F 88% 30.14 in 0.2 mi North 6.9 mph - 0.06 in Fog , Snow Snow
7:53 AM 26.1 °F 17.6 °F 24.1 °F 92% 30.18 in 0.2 mi NNE 8.1 mph - 0.11 in Fog , Snow Snow
8:16 AM 26.1 °F 17.6 °F 23.0 °F 88% 30.12 in 0.2 mi NNE 8.1 mph - 0.04 in Fog , Snow Snow
8:46 AM 26.1 °F 17.6 °F 23.0 °F 88% 30.08 in 0.2 mi NE 8.1 mph - 0.10 in Fog , Snow Snow
8:53 AM 25.0 °F 13.6 °F 21.0 °F 85% 30.14 in 0.2 mi NE 12.7 mph 18.4 mph 0.10 in Fog , Snow Snow
9:53 AM 24.1 °F 14.4 °F 19.9 °F 84% 30.09 in 0.2 mi NE 9.2 mph - 0.04 in Fog , Snow Snow
10:53 AM 23.0 °F 11.7 °F 19.9 °F 88% 30.01 in 0.2 mi NNE 11.5 mph - 0.04 in Fog , Snow Snow
11:08 AM 23.0 °F 11.7 °F 19.9 °F 88% 29.93 in 0.5 mi NE 11.5 mph - 0.01 in Fog , Snow Snow
11:12 AM 23.0 °F 10.1 °F 19.9 °F 88% 29.93 in 0.5 mi NNE 15.0 mph - 0.01 in Fog , Snow Snow
11:53 AM 24.1 °F 11.0 °F 19.9 °F 84% 29.93 in 0.5 mi NNE 16.1 mph - 0.01 in Fog , Snow Snow
12:04 PM 24.1 °F 13.1 °F 19.9 °F 84% 29.85 in 0.8 mi NNE 11.5 mph - 0.00 in Snow Light Snow
12:10 PM 24.1 °F 12.5 °F 19.9 °F 84% 29.84 in 1.0 mi NNE 12.7 mph - 0.00 in Snow Light Snow
12:25 PM 24.1 °F 13.1 °F 19.9 °F 84% 29.82 in 0.8 mi NNE 11.5 mph - 0.01 in Snow Light Snow
12:45 PM 24.1 °F 13.1 °F 19.9 °F 84% 29.78 in 0.5 mi NNE 11.5 mph 21.9 mph 0.01 in Fog , Snow Snow
12:53 PM 24.1 °F 13.7 °F 19.9 °F 84% 29.84 in 0.5 mi NNE 10.4 mph 23.0 mph 0.01 in Fog , Snow Snow
1:24 PM 24.1 °F 13.7 °F 19.9 °F 84% 29.73 in 0.2 mi NNE 10.4 mph - 0.01 in Fog , Snow Light Snow
1:38 PM 24.1 °F 12.0 °F 19.9 °F 84% 29.74 in 0.2 mi North 13.8 mph - 0.01 in Fog , Snow Snow
1:53 PM 24.1 °F 12.0 °F 19.9 °F 84% 29.77 in 0.2 mi NNE 13.8 mph - 0.02 in Fog , Snow Heavy Snow
2:29 PM 24.1 °F 13.7 °F 19.9 °F 84% 29.70 in 1.0 mi North 10.4 mph - 0.01 in Snow Light Snow
2:53 PM 24.1 °F 13.7 °F 21.0 °F 88% 29.74 in 1.0 mi North 10.4 mph - 0.01 in Snow Light Snow
3:16 PM 24.1 °F 14.4 °F 21.0 °F 88% 29.67 in 0.8 mi NNE 9.2 mph - 0.01 in Snow Light Snow
3:53 PM 25.0 °F 12.6 °F 21.9 °F 88% 29.78 in 0.5 mi North 15.0 mph - 0.03 in Fog , Snow Snow
4:53 PM 24.1 °F 12.5 °F 21.0 °F 88% 29.76 in 0.8 mi North 12.7 mph - 0.01 in Snow Light Snow
5:11 PM 24.1 °F 13.1 °F 21.0 °F 88% 29.71 in 1.0 mi North 11.5 mph - 0.00 in Snow Light Snow
5:53 PM 23.0 °F 11.7 °F 19.9 °F 88% 29.76 in 1.0 mi North 11.5 mph - 0.00 in Snow Light Snow
6:20 PM 23.0 °F 13.1 °F 19.0 °F 85% 29.72 in 6.0 mi NNW 9.2 mph - 0.00 in Snow Light Snow
6:53 PM 23.0 °F 11.7 °F 18.0 °F 81% 29.78 in 10.0 mi North 11.5 mph - 0.00 in   Overcast
7:27 PM 23.0 °F 13.1 °F 18.0 °F 81% 29.73 in 10.0 mi North 9.2 mph - N/A   Overcast
7:53 PM 23.0 °F 11.7 °F 18.0 °F 81% 29.81 in 10.0 mi NNW 11.5 mph - N/A   Overcast
8:43 PM 21.9 °F 10.4 °F 17.1 °F 82% 29.78 in 1.8 mi NNW 11.5 mph - 0.00 in Snow Light Snow
8:50 PM 21.2 °F 8.9 °F 17.6 °F 86% 29.79 in 1.8 mi North 12.7 mph - 0.00 in Snow Light Snow
8:53 PM 21.9 °F 9.8 °F 18.0 °F 85% 29.86 in 1.8 mi NNW 12.7 mph - 0.00 in Snow Light Snow
9:09 PM 21.9 °F 10.4 °F 18.0 °F 85% 29.81 in 3.0 mi North 11.5 mph - 0.00 in Snow Light Snow
9:26 PM 21.9 °F 10.4 °F 18.0 °F 85% 29.82 in 1.8 mi North 11.5 mph - 0.00 in Snow Light Snow
9:53 PM 21.9 °F 10.4 °F 18.0 °F 85% 29.89 in 1.0 mi North 11.5 mph - 0.00 in Snow Light Snow
10:53 PM 21.9 °F 14.5 °F 18.0 °F 85% 29.94 in 4.0 mi North 5.8 mph - 0.00 in Snow Light Snow
11:53 PM 23.0 °F 15.8 °F 18.0 °F 81% 29.99 in 6.0 mi North 5.8 mph - 0.00 in Snow Light Snow